Hlavní strana
METAR-TAF:

METAR-TAF

Letiště :

Lexington, Severní Karolína, Spojené státy americké

zeměpisná šířka: 35-46-52N, zeměpisná délka: 080-18-14W, výška: 223 m

Aktuální stav počasí

Zpráva byla vytvořena před 1 hodinou a 11 minutami, v 01:15 UTC
Bezvětří
Teplota 21°C
Vlhkost vzduchu 100%
Tlak 1018 hPa
Viditelnost: 16.1 km
Polojasno ve výšce 10000 ft

METAR: KEXX 300115Z AUTO 00000KT 10SM SCT100 21/21 A3005 RMK AO2 T02120212

Čas: 22:26 (02:26 UTC)


TAF: chybějící

Stav a předpovědi počasí z více než 4 000 letišť (zprávy METAR a TAF).

Červené a žluté tečky na mapě představují dostupné meteorologické stanice.

Když kurzor umístíte na tečku, zobrazí se název stanice.

Pak kliknutím zobrazíte stav a předpověď počasí.

Chcete-li změnit mapu, kliknutím na zelené tlačítko se znaménkem +mapu přiblížíte, kliknutím na zelené tlačítko se znaménkem – mapu oddálíte a kliknutím na zelené šipky přejdete na sousední mapy.


METAR-TAF: